KINDAKUN POINT, BC current weather conditions

sailwx.info

Wind from 070 at 7 knots

Air temperature 15.0° C
Dewpoint 11.0° C

Last reported at 2014-Sep-24 03:00 UTC.
Time now 2014-Sep-24 04:30 UTC

Location: N 53°19' W 132°46'.
View on Google Maps.

See reports from other nearby stations

  
Tides and Currents Weather Stations Pressure Air Temp Water Temp Dewpoint Dewpoint Depression Visibility Wind Speed Wind Dir Waves Ship Positions
date/time (UTC)wind fromknots sea level pressurealtimeterstation pressurevisibilityair tempwater tempwave heightnotes
2014-Sep-24 03:00 070 7 15.0
2014-Sep-24 02:00 110 13 gusting 23 16.0
2014-Sep-24 01:00 110 19 gusting 27 16.0
2014-Sep-23 16:00 110 19 gusting 29 14.0
2014-Sep-23 15:00 110 15 gusting 25 14.0
2014-Sep-23 14:00 110 13 gusting 20 14.0
2014-Sep-23 13:00 100 14 gusting 20 13.0
2014-Sep-23 12:00 100 9 gusting 15 13.0
2014-Sep-23 11:00 090 9 13.0
2014-Sep-23 10:00 100 13 12.0
2014-Sep-23 09:00 100 6 12.0
2014-Sep-23 08:00 120 4 12.0
2014-Sep-23 07:00 100 5 12.0
2014-Sep-23 06:00 120 7 12.0
2014-Sep-23 05:00 120 6 13.0
2014-Sep-23 04:00 140 5 14.0
2014-Sep-23 03:00 150 8 15.0
2014-Sep-23 02:00 180 7 15.0
2014-Sep-23 01:00 180 10 15.0
2014-Sep-23 00:00 190 11 16.0
2014-Sep-22 23:00 190 13 16.0
2014-Sep-22 22:00 190 12 16.0
2014-Sep-22 21:00 180 11 16.0
2014-Sep-22 20:00 170 12 16.0
2014-Sep-22 19:00 170 10 15.0
2014-Sep-22 18:00 160 10 15.0
2014-Sep-22 17:00 140 7 15.0
2014-Sep-22 16:00 140 6 14.0
2014-Sep-22 15:00 130 6 14.0
2014-Sep-22 14:00 120 6 13.0
2014-Sep-22 13:00 240 6 15.0
2014-Sep-22 12:00 190 8 14.0
2014-Sep-22 11:00 220 10 14.0
2014-Sep-22 10:00 120 6 13.0
2014-Sep-22 09:00 160 4 14.0
2014-Sep-22 08:00 260 5 15.0
2014-Sep-22 07:00 260 6 15.0
2014-Sep-22 06:00 260 9 15.0
2014-Sep-22 05:00 260 10 15.0
2014-Sep-22 04:00 230 14 15.0